Details From UBBB - Heydar Aliyev
To VRMM - Male Intl
Flight Number -
Tags Generated
Created
Modified
Stats Distance 2,522 nm / 4,670 km
Max Altitude 0 ft / 0 m
Waypoints 3
Social Downloads 1
Likes 0
Share VATSIM

Download

Looking for another format? Having issues loading an existing format? Contact us
Advertisement - Login to hide

Notes

Generated

Route

UBBB MLE37 VRMM

ID Type Via Altitude Latitude Longitude Leg Dist Tot Dist Heading (true) Name
O UBBB APT - 0 ft / 0 m 40.48000˚ 50.03500˚ - 0 nm - -
MLE37 FIX - 0 ft / 0 m 4.28377˚ 73.48676˚ 2516 nm 2516 nm 144° / 153° -
O VRMM APT - 0 ft / 0 m 4.20629˚ 73.52889˚ 5 nm 2521 nm 152° / 152° -

Altitude Profile

Advertisement - Login to hide

Weather


0- 5 10 15 20 25 30 35+ Temperature / ° C

Clouds and Precipitation
Forecast for 2018-05-20 12:00 UTC. Updated an hour ago

Ground ~20,000 ft ~40,000 ft Winds

UBBB

Details ICAO UBBB (GYD)
Name HEYDAR ALIYEV
Region Azerbiajan
Timezone Asia/Baku (UTC+4.0)
Stats Elevation 10 ft / 3 m (AMSL)
Location 40.470000° 50.052083°
Runways 2
Magnetic Variation 6.264° E

METAR

UBBB 201000Z 17015KT CAVOK 30/07 Q1014 R88/D NOSIG

Decode

TAF

TAF UBBB 200506Z 2006/2106 18008KT CAVOK TX31/2010Z TN14/2103Z TEMPO 2006/2018 SCT030 SCT100 TEMPO 2020/2104 5000 BR

Decode

Departure Runways

ID Width Length Bearing (true) Bearing (mag) Surface Threshold Offset Overrun Length
16 197 ft / 60 m 9,110 ft / 2,777 m 159.17° 152.91° Asphalt 0 ft / 0 m 1,312 ft / 400 m
18 167 ft / 51 m 10,947 ft / 3,337 m 180.00° 173.74° Concrete 0 ft / 0 m 1,312 ft / 400 m
34 197 ft / 60 m 9,110 ft / 2,777 m 339.18° 332.92° Asphalt 0 ft / 0 m 656 ft / 200 m
36 167 ft / 51 m 10,947 ft / 3,337 m 0.00° 353.74° Concrete 444 ft / 135 m 541 ft / 165 m

VRMM

Details ICAO VRMM (MLE)
Name MALE INTL
Region Maldives
Timezone Indian/Maldives (UTC+5.0)
Stats Elevation 6 ft / 2 m (AMSL)
Location 4.191832° 73.529128°
Runways 1
Magnetic Variation 2.802° W

METAR

VRMM 200900Z 22015KT 9999 FEW017 FEW018CB SCT022 BKN260 30/24 Q1007 CB NE E SE TEMPO 5000 -SHRA

Decode

TAF

TAF VRMM 200500Z 2006/2112 23018KT 9999 SCT017TCU TEMPO 2008/2016 4000 SHRA SCT016 FEW017CB BKN100

Decode

Destination Runways

ID Width Length Bearing (true) Bearing (mag) Surface Threshold Offset Overrun Length
18 148 ft / 45 m 10,556 ft / 3,218 m 179.06° 181.86° Asphalt 328 ft / 100 m 201 ft / 61 m
36 148 ft / 45 m 10,556 ft / 3,218 m 359.06° 1.86° Asphalt 952 ft / 290 m 238 ft / 73 m

Approach Navaids

Runway Type Ident Frequency Range Bearing (true) Bearing (mag) Slope Elevation
36 Localiser IML 108.70 MHz 18 nm / 33 km 359.58° 2.38° - 5 ft / 2 m (AMSL)
36 Glidescope IML 108.70 MHz 10 nm / 19 km 359.06° 1.86° 3.00° 5 ft / 2 m (AMSL)
36 DME IML 108.70 MHz 18 nm / 33 km - - - 22 ft / 7 m (AMSL)

Popular Alternatives